sat.trackr.live / text

‹ back to catalog

STARLINK-30282

NORAD 57883 · 2023-144V

PAYLOAD ACTIVE UNKNOWN

§ Identity

Operator
Country
US
Launch date
2023-09-16
Launch site
AFETR
Launch vehicle
Mass (kg)
RCS (m²)

Purposes: comms

External: N2YO · Heavens-Above · Gunter

§ Orbital elements

Epoch: 2026-05-25T04:52:21.811008Z

Period
94.27 min
Inclination
43.0018°
Eccentricity
0.0001747
Mean motion
15.27567981 rev/d
Perigee alt
481.9 km
Apogee alt
484.3 km
Semi-major
6,861.2 km
B*
1.4946e-4
RAAN
212.7118°
Arg perigee
269.3618°
Mean anomaly
90.7033°
Rev number
14,934

§ Raw data

STARLINK-302821 57883U 23144V   26145.20303022  .00003851  00000+0  14946-3 0  99982 57883  43.0018 212.7118 0001747 269.3618  90.7033 15.27567981149349

JSON: /api/v1/satellites/57883 · /tle

For live sub-satellite position, see the globe view (requires WebGL).

§ Visibility from observer

Set your observer location to see the next 7 days of passes ≥ 10°. The values pass through the URL so the page stays shareable.

No JS? Fill the form by hand. The geolocation button needs JavaScript.